Regional Weather Roundup
Issued by NWS

Home | Current Version | Previous Version | Graphics & Text | Print | Product List | Glossary On
Versions: 1 2 3 4 5 6 7 8 9 10 11 12 13 14 15 16 17 18 19 20 21 22 23 24 25 26 27 28 29 30 31 32 33 34 35 36 37 38 39 40 41 42 43 44 45 46 47 48 49 50
000
ASUS45 KCYS 290810
RWRWY

WYOMING REGIONAL WEATHER ROUNDUP
NATIONAL WEATHER SERVICE CHEYENNE WY
200 AM MDT FRI AUG 29 2014

NOTE:  "FAIR" INDICATES FEW OR NO CLOUDS BELOW 12,000 FEET
WITH NO SIGNIFICANT WEATHER AND/OR OBSTRUCTIONS TO VISIBILITY.

WYZ001-290900-
YELLOWSTONE NATIONAL PARK

CITY           SKY/WX    TMP DP  RH WIND       PRES   REMARKS
LK YELLOWSTONE   N/A     47  44  90 CALM      30.30F
W YELLOWSTONE  NOT AVBL

$$
WYZ002>013-054>058-071-098>099-290900-
NORTHERN WYOMING

CITY           SKY/WX    TMP DP  RH WIND       PRES   REMARKS
JACKSON        PTCLDY    55  46  71 N10       30.22S
CODY           CLOUDY    61  48  63 W7        30.14S
GREYBULL       LGT RAIN  65  54  67 NW18      30.05R
WORLAND        CLOUDY    69  48  47 N21G33    30.03R
SHERIDAN       CLOUDY    66  50  56 NW26G39   29.97R
BUFFALO        PTCLDY    61  44  53 N7        30.00F
GILLETTE       CLEAR     60  48  64 SW6       29.96S
HULETT         FAIR      55  45  67 MISG      29.96
NEWCASTLE      FAIR      54  46  76 NW3       29.98

$$
WYZ014>020-022>026-101>103-290900-
CENTRAL WYOMING

CITY           SKY/WX    TMP DP  RH WIND       PRES   REMARKS
BIG PINEY      CLEAR     48  42  80 E6        30.24S
PINEDALE       MOSUNNY   45  43  93 NW3       30.25S
DUBOIS         FAIR      50  41  71 NW7       30.24S
LANDER         CLEAR     61  43  51 VRB5      30.10R
RIVERTON       CLEAR     65  40  39 NW23      30.09R
CASPER         CLEAR     52  43  71 W6        30.05F
DOUGLAS        CLEAR     52  49  89 N3        30.05F

$$
WYZ021-027>030-104>119-290900-
SOUTHERN WYOMING

CITY           SKY/WX    TMP DP  RH WIND       PRES   REMARKS
EVANSTON       CLEAR     52  42  69 S8        30.26F
KEMMERER       SUNNY     52  43  71 NW9       30.27S
FORT BRIDGER   FAIR      59  43  55 SW10      30.27F
ROCK SPRINGS   CLEAR     57  42  57 SW14      30.22F
DIXON          FAIR      50  48  92 SE6       30.25F
RAWLINS        PTCLDY    58  43  57 W16       30.18F
SARATOGA       FAIR      50  45  81 SE3       30.22F
LARAMIE        CLEAR     44  42  93 SE8       30.20F
CHEYENNE       CLEAR     53  43  68 NW9       30.12F
TORRINGTON     CLEAR     51  50  96 CALM      29.99F
PINE BLUFFS    FAIR      46  45  93 S6        30.07F

$$


USA.gov is the U.S. government's official web portal to all federal, state and local government web resources and services.